Погода в Дунилове

Россия / Ивановская область     56°59′34″N   41°24′43″E
темп.,
°C
ветер,
м/с
пор.,
м/с
влажн.,
%
обл.,
%
осадки,
мм/ч
давл.,
гПа
погр.,
м
7 мая, пт
пт700:00+10юз61285100 0.1 1006865
03:00+7юз3790100 0.3 1007235
06:00+8юз3787100 0.0 1008444
09:00+10юз4569100 0.0 10091024
12:00+11зюз5652100 0.1 10101493
15:00+13з674198 0.1 10102240
18:00+12зюз36491 0.0 10111105
21:00+7ююз33630 0.0 101334
8 мая, сб
сб800:00+5ю357099 0.0 101476
03:00+4ююв367654 0.0 1015115
06:00+6ююв41171100 0.0 1014285
09:00+12ююв61052100 0.0 10131178
12:00+13ююв71150100 0.0 10111875
15:00+12ююв71360100 0.0 10091794
18:00+9юв61384100 2.9 10081288
21:00+9ююв71492100 6.0 1006875
9 мая, вс
вс900:00+9ююв51396100 1.5 1004646
03:00+10ююв41097100 2.0 1004470
06:00+10ююв3798100 0.3 1004377
09:00+11ююз4789100 1.0 1005617
12:00+12юз4682100 0.7 1007805
15:00+8сз6885100 1.0 1011556
18:00+5ссз61189100 0.0 1015691
21:00+6ссз51184100 0.0 1018872
10 мая, пн
пн1000:00+6ссз51184100 0.0 1020686
03:00+3ссз512870 0.0 1023400
06:00+4ссз412810 0.0 1026430
09:00+10ссв57565 0.0 1027846
12:00+13с454234 0.0 10281256
15:00+15с444141 0.0 10281378
18:00+14с35565 0.0 1029393
21:00+8с22725 0.0 103025
11 мая, вт
вт1100:00+7ссв22764 0.0 103116
03:00+6св22756 0.0 103212
06:00+8всв247268 0.0 1032105
09:00+14в245299 0.0 1033598
12:00+17в3446100 0.0 10321001
15:00+18всв3448100 0.0 10301086
18:00+16всв2465100 0.0 1030156
21:00+12в2275100 0.0 103016